Time,TemperatureF,DewpointF,PressureIn,WindDirection,WindDirectionDegrees,WindSpeedMPH,WindSpeedGustMPH,Humidity,HourlyPrecipIn,Conditions,Clouds,dailyrainin,SoftwareType,DateUTC
2013-04-13 00:04:00,60.4,46.9,29.82,SE,127,0.0,10.0,61,0.00,,,0.00,meteohub,2013-04-13 07:04:00,
2013-04-13 00:09:00,60.3,46.8,29.82,SE,127,0.0,7.0,61,0.00,,,0.00,meteohub,2013-04-13 07:09:00,
2013-04-13 00:14:00,60.1,46.6,29.82,SE,127,0.0,7.0,61,0.00,,,0.00,meteohub,2013-04-13 07:14:00,
2013-04-13 00:19:00,59.7,46.2,29.81,SE,127,0.0,2.0,61,0.00,,,0.00,meteohub,2013-04-13 07:19:00,
2013-04-13 00:25:00,59.7,45.9,29.81,ESE,123,0.0,2.0,60,0.00,,,0.00,meteohub,2013-04-13 07:25:00,
2013-04-13 00:30:00,60.1,45.7,29.81,ESE,123,2.0,6.0,59,0.00,,,0.00,meteohub,2013-04-13 07:30:00,
2013-04-13 00:35:00,60.4,45.7,29.81,ESE,123,0.0,6.0,58,0.00,,,0.00,meteohub,2013-04-13 07:35:00,
2013-04-13 00:42:00,60.6,45.3,29.81,ESE,123,0.0,6.0,57,0.00,,,0.00,meteohub,2013-04-13 07:42:00,
2013-04-13 00:47:00,61.0,45.1,29.81,ESE,123,0.0,3.0,56,0.00,,,0.00,meteohub,2013-04-13 07:47:00,
2013-04-13 00:52:00,61.2,45.3,29.81,ESE,123,1.0,4.0,56,0.00,,,0.00,meteohub,2013-04-13 07:52:00,
2013-04-13 00:57:00,61.3,45.5,29.81,ESE,123,0.0,4.0,56,0.00,,,0.00,meteohub,2013-04-13 07:57:00,
2013-04-13 01:02:00,61.5,45.7,29.81,ESE,123,0.0,4.0,56,0.00,,,0.00,meteohub,2013-04-13 08:02:00,
2013-04-13 01:08:00,61.5,45.7,29.81,ESE,123,0.0,4.0,56,0.00,,,0.00,meteohub,2013-04-13 08:08:00,
2013-04-13 01:13:00,61.3,46.0,29.81,ESE,123,0.0,3.0,57,0.00,,,0.00,meteohub,2013-04-13 08:13:00,
2013-04-13 01:21:00,61.3,46.4,29.81,ESE,123,0.0,5.0,58,0.00,,,0.00,meteohub,2013-04-13 08:21:00,
2013-04-13 01:27:00,60.6,46.6,29.81,ESE,123,0.0,5.0,60,0.00,,,0.00,meteohub,2013-04-13 08:27:00,
2013-04-13 01:32:00,60.1,46.2,29.80,SE,130,5.0,5.0,60,0.00,,,0.00,meteohub,2013-04-13 08:32:00,
2013-04-13 01:37:00,59.0,46.0,29.80,SE,131,0.0,6.0,62,0.00,,,0.00,meteohub,2013-04-13 08:37:00,
2013-04-13 01:42:00,58.6,46.0,29.80,SE,131,0.0,6.0,63,0.00,,,0.00,meteohub,2013-04-13 08:42:00,
2013-04-13 01:47:00,57.7,46.4,29.81,SE,131,0.0,6.0,66,0.00,,,0.00,meteohub,2013-04-13 08:47:00,
2013-04-13 01:52:00,57.4,46.6,29.81,SE,131,4.0,6.0,67,0.00,,,0.00,meteohub,2013-04-13 08:52:00,
2013-04-13 01:59:00,57.4,46.9,29.81,SE,131,0.0,6.0,68,0.00,,,0.00,meteohub,2013-04-13 08:59:00,
2013-04-13 02:05:00,57.7,46.4,29.81,SE,130,0.0,6.0,66,0.00,,,0.00,meteohub,2013-04-13 09:05:00,
2013-04-13 02:10:00,58.1,46.4,29.81,SE,130,0.0,6.0,65,0.00,,,0.00,meteohub,2013-04-13 09:10:00,
2013-04-13 02:17:00,57.9,46.6,29.81,SE,130,0.0,5.0,66,0.00,,,0.00,meteohub,2013-04-13 09:17:00,
2013-04-13 02:22:00,57.6,46.8,29.81,SE,130,0.0,5.0,67,0.00,,,0.00,meteohub,2013-04-13 09:22:00,
2013-04-13 02:27:00,57.4,46.6,29.81,SE,129,0.0,4.0,67,0.00,,,0.00,meteohub,2013-04-13 09:27:00,
2013-04-13 02:34:00,57.2,46.4,29.81,SE,129,2.0,4.0,67,0.00,,,0.00,meteohub,2013-04-13 09:34:00,
2013-04-13 02:39:00,56.7,45.9,29.81,SE,129,0.0,5.0,67,0.00,,,0.00,meteohub,2013-04-13 09:39:00,
2013-04-13 02:45:00,56.7,45.9,29.80,SE,128,7.0,7.0,67,0.00,,,0.00,meteohub,2013-04-13 09:45:00,
2013-04-13 02:52:00,56.3,45.9,29.80,SE,129,0.0,7.0,68,0.00,,,0.00,meteohub,2013-04-13 09:52:00,
2013-04-13 02:57:00,56.1,45.7,29.80,SE,129,0.0,7.0,68,0.00,,,0.00,meteohub,2013-04-13 09:57:00,
2013-04-13 03:02:00,55.9,45.5,29.79,SE,144,6.0,7.0,68,0.00,,,0.00,meteohub,2013-04-13 10:02:00,
2013-04-13 03:07:00,55.9,45.5,29.79,SSE,160,0.0,10.0,68,0.00,,,0.00,meteohub,2013-04-13 10:07:00,
2013-04-13 03:13:00,55.8,45.7,29.79,SSE,160,0.0,11.0,69,0.00,,,0.00,meteohub,2013-04-13 10:13:00,
2013-04-13 03:19:00,55.6,45.5,29.79,SSE,161,4.0,11.0,69,0.00,,,0.00,meteohub,2013-04-13 10:19:00,
2013-04-13 03:24:00,55.0,45.1,29.78,SSE,155,2.0,15.0,69,0.00,,,0.00,meteohub,2013-04-13 10:24:00,
2013-04-13 03:29:00,55.0,44.6,29.78,SSE,154,3.0,15.0,68,0.00,,,0.00,meteohub,2013-04-13 10:29:00,
2013-04-13 03:35:00,55.0,45.1,29.78,SSE,151,0.0,15.0,69,0.00,,,0.00,meteohub,2013-04-13 10:35:00,
2013-04-13 03:40:00,55.0,45.1,29.78,SSE,152,0.0,14.0,69,0.00,,,0.00,meteohub,2013-04-13 10:40:00,
2013-04-13 03:45:00,55.0,45.1,29.78,SSE,152,6.0,7.0,69,0.00,,,0.00,meteohub,2013-04-13 10:45:00,
2013-04-13 03:50:00,55.2,44.8,29.78,SSE,154,0.0,9.0,68,0.00,,,0.00,meteohub,2013-04-13 10:50:00,
2013-04-13 03:57:00,55.2,44.8,29.79,SSE,152,0.0,9.0,68,0.00,,,0.00,meteohub,2013-04-13 10:57:00,
2013-04-13 04:04:00,55.6,45.1,29.79,SSE,154,1.0,9.0,68,0.00,,,0.00,meteohub,2013-04-13 11:04:00,
2013-04-13 04:12:00,55.2,45.1,29.79,SSE,154,0.0,7.0,69,0.00,,,0.00,meteohub,2013-04-13 11:12:00,
2013-04-13 04:17:00,55.2,45.1,29.79,SSE,154,0.0,7.0,69,0.00,,,0.00,meteohub,2013-04-13 11:17:00,
2013-04-13 04:24:00,55.2,45.1,29.79,SSE,154,0.0,7.0,69,0.00,,,0.00,meteohub,2013-04-13 11:24:00,
2013-04-13 04:29:00,55.0,44.6,29.79,SSE,153,0.0,6.0,68,0.00,,,0.00,meteohub,2013-04-13 11:29:00,
2013-04-13 04:35:00,55.0,45.1,29.78,SSE,156,2.0,7.0,69,0.00,,,0.00,meteohub,2013-04-13 11:35:00,
2013-04-13 04:42:00,54.7,45.1,29.78,SSE,158,0.0,7.0,70,0.00,,,0.00,meteohub,2013-04-13 11:42:00,
2013-04-13 04:47:00,54.1,45.0,29.79,SSE,156,0.0,9.0,71,0.00,,,0.00,meteohub,2013-04-13 11:47:00,
2013-04-13 04:52:00,53.8,44.6,29.79,SSE,155,0.0,9.0,71,0.00,,,0.00,meteohub,2013-04-13 11:52:00,
2013-04-13 05:02:00,53.2,44.1,29.79,SSE,156,0.0,9.0,71,0.00,,,0.00,meteohub,2013-04-13 12:02:00,
2013-04-13 05:07:00,53.1,43.9,29.80,SSE,155,0.0,11.0,71,0.00,,,0.00,meteohub,2013-04-13 12:07:00,
2013-04-13 05:12:00,53.1,43.9,29.80,SSE,157,1.0,11.0,71,0.00,,,0.00,meteohub,2013-04-13 12:12:00,
2013-04-13 05:19:00,52.9,43.7,29.79,SSE,158,5.0,6.0,71,0.00,,,0.00,meteohub,2013-04-13 12:19:00,
2013-04-13 05:24:00,52.5,43.3,29.80,SE,146,0.0,6.0,71,0.00,,,0.00,meteohub,2013-04-13 12:24:00,
2013-04-13 05:30:00,52.3,43.2,29.80,SE,146,0.0,10.0,71,0.00,,,0.00,meteohub,2013-04-13 12:30:00,
2013-04-13 05:35:00,52.3,43.2,29.81,SE,146,0.0,7.0,71,0.00,,,0.00,meteohub,2013-04-13 12:35:00,
2013-04-13 05:40:00,52.3,43.2,29.81,SE,146,0.0,7.0,71,0.00,,,0.00,meteohub,2013-04-13 12:40:00,
2013-04-13 05:47:00,52.2,43.0,29.81,SE,146,0.0,0.0,71,0.00,,,0.00,meteohub,2013-04-13 12:47:00,
2013-04-13 05:52:00,51.8,43.0,29.81,SE,146,0.0,0.0,72,0.00,,,0.00,meteohub,2013-04-13 12:52:00,
2013-04-13 05:57:00,51.6,43.0,29.81,SE,146,0.0,0.0,72,0.00,,,0.00,meteohub,2013-04-13 12:57:00,
2013-04-13 06:02:00,51.8,42.6,29.81,SE,146,0.0,0.0,71,0.00,,,0.00,meteohub,2013-04-13 13:02:00,
2013-04-13 06:07:00,52.2,42.6,29.81,SE,146,0.0,2.0,70,0.00,,,0.00,meteohub,2013-04-13 13:07:00,
2013-04-13 06:17:00,52.3,42.8,29.81,South,173,0.0,5.0,70,0.00,,,0.00,meteohub,2013-04-13 13:17:00,
2013-04-13 06:22:00,52.3,42.8,29.81,South,173,0.0,6.0,70,0.00,,,0.00,meteohub,2013-04-13 13:22:00,
2013-04-13 06:30:00,52.2,43.0,29.80,South,173,0.0,6.0,71,0.00,,,0.00,meteohub,2013-04-13 13:30:00,
2013-04-13 06:35:00,51.8,43.0,29.81,South,170,0.0,4.0,72,0.00,,,0.00,meteohub,2013-04-13 13:35:00,
2013-04-13 06:40:00,51.6,43.3,29.81,South,170,0.0,0.0,73,0.00,,,0.00,meteohub,2013-04-13 13:40:00,
2013-04-13 06:46:00,51.6,43.3,29.81,South,170,0.0,0.0,73,0.00,,,0.00,meteohub,2013-04-13 13:46:00,
2013-04-13 06:52:00,51.8,43.0,29.82,South,170,0.0,2.0,72,0.00,,,0.00,meteohub,2013-04-13 13:52:00,
2013-04-13 06:57:00,51.8,43.0,29.82,South,170,0.0,2.0,72,0.00,,,0.00,meteohub,2013-04-13 13:57:00,
2013-04-13 07:02:00,51.4,43.2,29.82,South,170,0.0,2.0,73,0.00,,,0.00,meteohub,2013-04-13 14:02:00,
2013-04-13 07:07:00,51.3,43.0,29.81,South,170,0.0,0.0,73,0.00,,,0.00,meteohub,2013-04-13 14:07:00,
2013-04-13 07:12:00,51.4,42.8,29.82,South,170,0.0,0.0,72,0.00,,,0.00,meteohub,2013-04-13 14:12:00,
2013-04-13 07:18:00,51.6,42.4,29.82,South,170,0.0,0.0,71,0.00,,,0.00,meteohub,2013-04-13 14:18:00,
2013-04-13 07:25:00,52.3,42.8,29.83,South,169,0.0,0.0,70,0.00,,,0.00,meteohub,2013-04-13 14:25:00,
2013-04-13 07:32:00,53.1,42.8,29.83,South,169,0.0,4.0,68,0.00,,,0.00,meteohub,2013-04-13 14:32:00,
2013-04-13 07:37:00,53.4,43.2,29.83,South,169,0.0,2.0,68,0.00,,,0.00,meteohub,2013-04-13 14:37:00,
2013-04-13 07:42:00,53.8,43.5,29.83,South,169,0.0,2.0,68,0.00,,,0.00,meteohub,2013-04-13 14:42:00,
2013-04-13 07:47:00,53.8,43.5,29.83,South,169,0.0,0.0,68,0.00,,,0.00,meteohub,2013-04-13 14:47:00,
2013-04-13 07:53:00,54.1,43.3,29.83,South,169,0.0,4.0,67,0.00,,,0.00,meteohub,2013-04-13 14:53:00,
2013-04-13 07:59:00,54.1,43.3,29.83,South,169,0.0,4.0,67,0.00,,,0.00,meteohub,2013-04-13 14:59:00,
2013-04-13 08:04:00,54.9,43.7,29.83,South,169,0.0,4.0,66,0.00,,,0.00,meteohub,2013-04-13 15:04:00,
2013-04-13 08:12:00,55.2,43.7,29.83,South,183,0.0,4.0,65,0.00,,,0.00,meteohub,2013-04-13 15:12:00,
2013-04-13 08:19:00,55.6,44.1,29.83,South,183,0.0,2.0,65,0.00,,,0.00,meteohub,2013-04-13 15:19:00,
2013-04-13 08:25:00,55.8,44.6,29.83,SW,215,0.0,2.0,66,0.00,,,0.00,meteohub,2013-04-13 15:25:00,
2013-04-13 08:30:00,56.1,44.1,29.83,SW,215,0.0,0.0,64,0.00,,,0.00,meteohub,2013-04-13 15:30:00,
2013-04-13 08:37:00,56.7,44.6,29.84,SW,215,0.0,3.0,64,0.00,,,0.00,meteohub,2013-04-13 15:37:00,
2013-04-13 08:43:00,56.8,44.8,29.84,SW,214,6.0,6.0,64,0.00,,,0.00,meteohub,2013-04-13 15:43:00,
2013-04-13 08:48:00,57.4,45.0,29.84,SSW,206,0.0,7.0,63,0.00,,,0.00,meteohub,2013-04-13 15:48:00,
2013-04-13 08:54:00,57.6,45.1,29.84,SSW,206,0.0,7.0,63,0.00,,,0.00,meteohub,2013-04-13 15:54:00,
2013-04-13 08:59:00,57.7,43.9,29.84,SSW,204,0.0,7.0,60,0.00,,,0.00,meteohub,2013-04-13 15:59:00,
2013-04-13 09:05:00,58.1,45.1,29.84,SSW,204,1.0,6.0,62,0.00,,,0.00,meteohub,2013-04-13 16:05:00,
2013-04-13 09:10:00,58.1,44.8,29.84,SSW,204,0.0,6.0,61,0.00,,,0.00,meteohub,2013-04-13 16:10:00,
2013-04-13 09:15:00,58.1,44.8,29.84,South,183,0.0,7.0,61,0.00,,,0.00,meteohub,2013-04-13 16:15:00,
2013-04-13 09:20:00,58.5,45.1,29.84,South,184,0.0,7.0,61,0.00,,,0.00,meteohub,2013-04-13 16:20:00,
2013-04-13 09:29:00,58.6,45.3,29.84,South,183,0.0,7.0,61,0.00,,,0.00,meteohub,2013-04-13 16:29:00,
2013-04-13 09:34:00,59.7,45.3,29.84,South,184,0.0,3.0,59,0.00,,,0.00,meteohub,2013-04-13 16:34:00,
2013-04-13 09:40:00,60.1,46.2,29.84,South,184,0.0,5.0,60,0.00,,,0.00,meteohub,2013-04-13 16:40:00,
2013-04-13 09:47:00,60.6,46.2,29.84,South,184,0.0,5.0,59,0.00,,,0.00,meteohub,2013-04-13 16:47:00,
2013-04-13 09:54:00,61.0,46.0,29.83,SW,215,0.0,5.0,58,0.00,,,0.00,meteohub,2013-04-13 16:54:00,
2013-04-13 10:00:00,61.2,46.2,29.84,SSW,198,2.0,6.0,58,0.00,,,0.00,meteohub,2013-04-13 17:00:00,
2013-04-13 10:06:00,61.9,46.4,29.84,SSW,196,4.0,6.0,57,0.00,,,0.00,meteohub,2013-04-13 17:06:00,
2013-04-13 10:11:00,62.2,45.9,29.84,SSW,196,4.0,7.0,55,0.00,,,0.00,meteohub,2013-04-13 17:11:00,
2013-04-13 10:16:00,62.2,45.9,29.84,South,186,0.0,7.0,55,0.00,,,0.00,meteohub,2013-04-13 17:16:00,
2013-04-13 10:23:00,62.8,46.4,29.84,South,185,4.0,7.0,55,0.00,,,0.00,meteohub,2013-04-13 17:23:00,
2013-04-13 10:29:00,63.1,47.1,29.83,South,188,5.0,9.0,56,0.00,,,0.00,meteohub,2013-04-13 17:29:00,
2013-04-13 10:34:00,63.3,46.9,29.84,South,188,2.0,9.0,55,0.00,,,0.00,meteohub,2013-04-13 17:34:00,
2013-04-13 10:39:00,63.7,47.3,29.83,SSW,194,7.0,8.0,55,0.00,,,0.00,meteohub,2013-04-13 17:39:00,
2013-04-13 10:47:00,63.9,47.8,29.83,SSW,192,0.0,7.0,56,0.00,,,0.00,meteohub,2013-04-13 17:47:00,
2013-04-13 10:52:00,64.0,48.0,29.83,South,191,3.0,7.0,56,0.00,,,0.00,meteohub,2013-04-13 17:52:00,
2013-04-13 10:57:00,63.9,47.8,29.83,SSW,194,5.0,7.0,56,0.00,,,0.00,meteohub,2013-04-13 17:57:00,
2013-04-13 11:03:00,63.9,48.4,29.83,SSW,194,0.0,7.0,57,0.00,,,0.00,meteohub,2013-04-13 18:03:00,
2013-04-13 11:09:00,64.8,48.2,29.83,SSW,196,8.0,8.0,55,0.00,,,0.00,meteohub,2013-04-13 18:09:00,
2013-04-13 11:14:00,64.9,48.4,29.83,SSW,195,0.0,8.0,55,0.00,,,0.00,meteohub,2013-04-13 18:14:00,
2013-04-13 11:20:00,65.5,48.4,29.83,SSW,196,2.0,8.0,54,0.00,,,0.00,meteohub,2013-04-13 18:20:00,
2013-04-13 11:27:00,66.0,48.9,29.83,SSW,196,0.0,7.0,54,0.00,,,0.00,meteohub,2013-04-13 18:27:00,
2013-04-13 11:28:00,66.4,48.7,29.83,SSW,196,0.0,7.0,53,0.00,,,0.00,meteohub,2013-04-13 18:28:00,
2013-04-13 11:34:00,66.6,48.9,29.83,SSW,196,0.0,6.0,53,0.00,,,0.00,meteohub,2013-04-13 18:34:00,
2013-04-13 11:39:00,66.6,48.9,29.82,SSW,196,5.0,5.0,53,0.00,,,0.00,meteohub,2013-04-13 18:39:00,
2013-04-13 11:44:00,67.3,49.1,29.82,SSW,196,1.0,7.0,52,0.00,,,0.00,meteohub,2013-04-13 18:44:00,
2013-04-13 11:50:00,67.1,48.9,29.83,SSW,195,0.0,10.0,52,0.00,,,0.00,meteohub,2013-04-13 18:50:00,
2013-04-13 11:55:00,67.5,48.7,29.83,SSW,195,0.0,10.0,51,0.00,,,0.00,meteohub,2013-04-13 18:55:00,
2013-04-13 12:00:00,67.8,49.1,29.83,SSW,194,3.0,10.0,51,0.00,,,0.00,meteohub,2013-04-13 19:00:00,
2013-04-13 12:06:00,67.8,48.6,29.83,SSW,198,6.0,9.0,50,0.00,,,0.00,meteohub,2013-04-13 19:06:00,
2013-04-13 12:11:00,67.8,48.6,29.83,SSW,201,4.0,9.0,50,0.00,,,0.00,meteohub,2013-04-13 19:11:00,
2013-04-13 12:16:00,68.4,48.9,29.83,SSW,201,0.0,9.0,50,0.00,,,0.00,meteohub,2013-04-13 19:16:00,
2013-04-13 12:21:00,68.5,48.0,29.82,SSW,202,0.0,7.0,48,0.00,,,0.00,meteohub,2013-04-13 19:21:00,
2013-04-13 12:27:00,68.5,48.6,29.82,SSW,200,5.0,7.0,49,0.00,,,0.00,meteohub,2013-04-13 19:27:00,
2013-04-13 12:32:00,68.5,48.6,29.81,SSW,201,5.0,7.0,49,0.00,,,0.00,meteohub,2013-04-13 19:32:00,
2013-04-13 12:37:00,69.1,49.1,29.81,SSW,201,0.0,7.0,49,0.00,,,0.00,meteohub,2013-04-13 19:37:00,
2013-04-13 12:42:00,69.6,49.6,29.81,SSW,200,0.0,7.0,49,0.00,,,0.00,meteohub,2013-04-13 19:42:00,
2013-04-13 12:47:00,70.0,48.7,29.81,SSW,208,5.0,10.0,47,0.00,,,0.00,meteohub,2013-04-13 19:47:00,
2013-04-13 12:52:00,70.0,50.0,29.81,SSW,208,2.0,10.0,49,0.00,,,0.00,meteohub,2013-04-13 19:52:00,
2013-04-13 12:57:00,70.3,50.4,29.81,SSW,208,3.0,11.0,49,0.00,,,0.00,meteohub,2013-04-13 19:57:00,
2013-04-13 13:03:00,70.7,50.5,29.81,SSW,213,0.0,11.0,49,0.00,,,0.00,meteohub,2013-04-13 20:03:00,
2013-04-13 13:08:00,70.3,49.6,29.81,SW,221,0.0,11.0,48,0.00,,,0.00,meteohub,2013-04-13 20:08:00,
2013-04-13 13:13:00,70.3,49.1,29.81,SW,221,0.0,10.0,47,0.00,,,0.00,meteohub,2013-04-13 20:13:00,
2013-04-13 13:18:00,70.5,49.8,29.81,SW,221,0.0,10.0,48,0.00,,,0.00,meteohub,2013-04-13 20:18:00,
2013-04-13 13:24:00,71.4,48.9,29.81,SW,221,4.0,7.0,45,0.00,,,0.00,meteohub,2013-04-13 20:24:00,
2013-04-13 13:29:00,71.8,48.7,29.80,SW,217,0.0,6.0,44,0.00,,,0.00,meteohub,2013-04-13 20:29:00,
2013-04-13 13:34:00,71.4,49.6,29.79,SW,216,0.0,8.0,46,0.00,,,0.00,meteohub,2013-04-13 20:34:00,
2013-04-13 13:39:00,72.0,50.0,29.79,SW,216,1.0,8.0,46,0.00,,,0.00,meteohub,2013-04-13 20:39:00,
2013-04-13 13:44:00,72.9,50.4,29.79,SW,216,0.0,8.0,45,0.00,,,0.00,meteohub,2013-04-13 20:44:00,
2013-04-13 13:50:00,72.7,50.2,29.79,SW,214,5.0,7.0,45,0.00,,,0.00,meteohub,2013-04-13 20:50:00,
2013-04-13 13:55:00,72.9,50.4,29.78,SSW,213,1.0,7.0,45,0.00,,,0.00,meteohub,2013-04-13 20:55:00,
2013-04-13 14:01:00,72.7,49.5,29.78,SSW,210,3.0,7.0,44,0.00,,,0.00,meteohub,2013-04-13 21:01:00,
2013-04-13 14:07:00,73.0,50.4,29.78,SSW,210,6.0,10.0,45,0.00,,,0.00,meteohub,2013-04-13 21:07:00,
2013-04-13 14:12:00,73.0,50.4,29.78,SSW,206,5.0,11.0,45,0.00,,,0.00,meteohub,2013-04-13 21:12:00,
2013-04-13 14:17:00,72.9,50.9,29.78,SSW,194,7.0,11.0,46,0.00,,,0.00,meteohub,2013-04-13 21:17:00,
2013-04-13 14:22:00,73.2,50.5,29.78,SSW,200,3.0,11.0,45,0.00,,,0.00,meteohub,2013-04-13 21:22:00,
2013-04-13 14:27:00,73.6,50.4,29.78,SSW,194,9.0,11.0,44,0.00,,,0.00,meteohub,2013-04-13 21:27:00,
2013-04-13 14:32:00,72.9,50.4,29.78,SSW,193,0.0,11.0,45,0.00,,,0.00,meteohub,2013-04-13 21:32:00,
2013-04-13 14:37:00,72.3,49.1,29.78,South,190,0.0,11.0,44,0.00,,,0.00,meteohub,2013-04-13 21:37:00,
2013-04-13 14:42:00,72.9,49.6,29.78,South,190,0.0,11.0,44,0.00,,,0.00,meteohub,2013-04-13 21:42:00,
2013-04-13 14:47:00,73.2,49.5,29.78,South,188,1.0,7.0,43,0.00,,,0.00,meteohub,2013-04-13 21:47:00,
2013-04-13 14:52:00,73.4,49.5,29.78,South,188,0.0,7.0,43,0.00,,,0.00,meteohub,2013-04-13 21:52:00,
2013-04-13 14:58:00,74.1,52.0,29.78,South,188,0.0,9.0,46,0.00,,,0.00,meteohub,2013-04-13 21:58:00,
2013-04-13 15:03:00,74.7,52.0,29.78,SSW,210,3.0,11.0,45,0.00,,,0.00,meteohub,2013-04-13 22:03:00,
2013-04-13 15:08:00,74.5,51.1,29.77,SSW,210,0.0,11.0,44,0.00,,,0.00,meteohub,2013-04-13 22:08:00,
2013-04-13 15:13:00,74.7,52.0,29.77,SW,226,8.0,11.0,45,0.00,,,0.00,meteohub,2013-04-13 22:13:00,
2013-04-13 15:18:00,74.5,51.1,29.77,SW,227,0.0,12.0,44,0.00,,,0.00,meteohub,2013-04-13 22:18:00,
2013-04-13 15:24:00,74.7,52.5,29.77,SW,227,1.0,12.0,46,0.00,,,0.00,meteohub,2013-04-13 22:24:00,
2013-04-13 15:29:00,74.7,51.3,29.76,SW,223,3.0,12.0,44,0.00,,,0.00,meteohub,2013-04-13 22:29:00,
2013-04-13 15:34:00,74.3,52.2,29.76,SW,214,6.0,7.0,46,0.00,,,0.00,meteohub,2013-04-13 22:34:00,
2013-04-13 15:39:00,73.8,50.5,29.75,SSW,201,5.0,12.0,44,0.00,,,0.00,meteohub,2013-04-13 22:39:00,
2013-04-13 15:44:00,74.1,53.2,29.76,SSW,203,2.0,12.0,48,0.00,,,0.00,meteohub,2013-04-13 22:44:00,
2013-04-13 15:49:00,74.7,53.6,29.75,SSW,212,6.0,12.0,48,0.00,,,0.00,meteohub,2013-04-13 22:49:00,
2013-04-13 15:55:00,74.5,53.4,29.76,SW,219,4.0,11.0,48,0.00,,,0.00,meteohub,2013-04-13 22:55:00,
2013-04-13 16:00:00,74.5,52.9,29.76,SSW,195,3.0,11.0,47,0.00,,,0.00,meteohub,2013-04-13 23:00:00,
2013-04-13 16:05:00,74.1,52.0,29.76,SSW,202,5.0,12.0,46,0.00,,,0.00,meteohub,2013-04-13 23:05:00,
2013-04-13 16:10:00,74.5,52.9,29.75,SSW,203,2.0,12.0,47,0.00,,,0.00,meteohub,2013-04-13 23:10:00,
2013-04-13 16:15:00,74.1,52.5,29.75,SSW,195,5.0,12.0,47,0.00,,,0.00,meteohub,2013-04-13 23:15:00,
2013-04-13 16:21:00,73.9,52.5,29.75,South,190,3.0,10.0,47,0.00,,,0.00,meteohub,2013-04-13 23:21:00,
2013-04-13 16:26:00,73.6,52.7,29.75,SSW,199,6.0,10.0,48,0.00,,,0.00,meteohub,2013-04-13 23:26:00,
2013-04-13 16:31:00,73.9,50.7,29.75,South,180,3.0,10.0,44,0.00,,,0.00,meteohub,2013-04-13 23:31:00,
2013-04-13 16:36:00,73.4,50.7,29.74,South,180,0.0,10.0,45,0.00,,,0.00,meteohub,2013-04-13 23:36:00,
2013-04-13 16:41:00,73.6,50.4,29.75,South,185,0.0,10.0,44,0.00,,,0.00,meteohub,2013-04-13 23:41:00,
2013-04-13 16:46:00,73.6,50.9,29.75,SSW,192,2.0,10.0,45,0.00,,,0.00,meteohub,2013-04-13 23:46:00,
2013-04-13 16:52:00,74.3,52.7,29.75,SSW,196,2.0,10.0,47,0.00,,,0.00,meteohub,2013-04-13 23:52:00,
2013-04-13 16:57:00,74.3,52.2,29.75,SSW,196,2.0,8.0,46,0.00,,,0.00,meteohub,2013-04-13 23:57:00,
2013-04-13 17:02:00,73.9,51.3,29.75,SSW,196,0.0,8.0,45,0.00,,,0.00,meteohub,2013-04-14 00:02:00,
2013-04-13 17:07:00,73.9,51.3,29.75,SSW,196,0.0,6.0,45,0.00,,,0.00,meteohub,2013-04-14 00:07:00,
2013-04-13 17:12:00,73.9,51.8,29.75,SSW,196,0.0,6.0,46,0.00,,,0.00,meteohub,2013-04-14 00:12:00,
2013-04-13 17:17:00,74.1,53.2,29.75,SSW,196,4.0,5.0,48,0.00,,,0.00,meteohub,2013-04-14 00:17:00,
2013-04-13 17:22:00,73.9,53.6,29.75,SSW,200,3.0,5.0,49,0.00,,,0.00,meteohub,2013-04-14 00:22:00,
2013-04-13 17:27:00,73.9,53.1,29.75,SSW,200,6.0,9.0,48,0.00,,,0.00,meteohub,2013-04-14 00:27:00,
2013-04-13 17:32:00,73.8,52.9,29.75,SSW,200,0.0,9.0,48,0.00,,,0.00,meteohub,2013-04-14 00:32:00,
2013-04-13 17:37:00,73.0,52.2,29.75,SSW,197,3.0,9.0,48,0.00,,,0.00,meteohub,2013-04-14 00:37:00,
2013-04-13 17:43:00,72.3,52.7,29.75,SSW,196,3.0,9.0,50,0.00,,,0.00,meteohub,2013-04-14 00:43:00,
2013-04-13 17:48:00,72.1,52.5,29.75,SSW,196,1.0,9.0,50,0.00,,,0.00,meteohub,2013-04-14 00:48:00,
2013-04-13 17:53:00,72.3,52.2,29.75,SSW,196,5.0,7.0,49,0.00,,,0.00,meteohub,2013-04-14 00:53:00,
2013-04-13 17:58:00,72.1,51.4,29.75,SSW,196,6.0,7.0,48,0.00,,,0.00,meteohub,2013-04-14 00:58:00,
2013-04-13 18:04:00,71.8,52.2,29.75,SSW,196,1.0,6.0,50,0.00,,,0.00,meteohub,2013-04-14 01:04:00,
2013-04-13 18:09:00,71.8,52.7,29.74,SSW,196,0.0,6.0,51,0.00,,,0.00,meteohub,2013-04-14 01:09:00,
2013-04-13 18:14:00,72.0,52.9,29.74,SSW,196,0.0,6.0,51,0.00,,,0.00,meteohub,2013-04-14 01:14:00,
2013-04-13 18:19:00,72.0,52.9,29.75,SSW,196,0.0,5.0,51,0.00,,,0.00,meteohub,2013-04-14 01:19:00,
2013-04-13 18:24:00,72.0,52.9,29.75,SSW,196,1.0,5.0,51,0.00,,,0.00,meteohub,2013-04-14 01:24:00,
2013-04-13 18:29:00,71.4,52.3,29.75,SSW,195,4.0,7.0,51,0.00,,,0.00,meteohub,2013-04-14 01:29:00,
2013-04-13 18:34:00,71.2,51.6,29.75,SSW,194,1.0,7.0,50,0.00,,,0.00,meteohub,2013-04-14 01:34:00,
2013-04-13 18:39:00,70.9,51.8,29.75,SSW,194,3.0,7.0,51,0.00,,,0.00,meteohub,2013-04-14 01:39:00,
2013-04-13 18:45:00,70.5,52.0,29.75,SSW,194,0.0,6.0,52,0.00,,,0.00,meteohub,2013-04-14 01:45:00,
2013-04-13 18:50:00,70.3,52.3,29.75,SSW,194,0.0,5.0,53,0.00,,,0.00,meteohub,2013-04-14 01:50:00,
2013-04-13 18:55:00,70.2,52.7,29.76,SSW,194,0.0,5.0,54,0.00,,,0.00,meteohub,2013-04-14 01:55:00,
2013-04-13 19:00:00,70.2,52.2,29.75,SSW,197,0.0,4.0,53,0.00,,,0.00,meteohub,2013-04-14 02:00:00,
2013-04-13 19:05:00,70.0,53.1,29.76,South,190,0.0,3.0,55,0.00,,,0.00,meteohub,2013-04-14 02:05:00,
2013-04-13 19:10:00,69.6,52.7,29.76,South,190,0.0,3.0,55,0.00,,,0.00,meteohub,2013-04-14 02:10:00,
2013-04-13 19:15:00,69.3,52.3,29.76,South,190,0.0,3.0,55,0.00,,,0.00,meteohub,2013-04-14 02:15:00,
2013-04-13 19:21:00,68.7,52.3,29.76,South,190,0.0,0.0,56,0.00,,,0.00,meteohub,2013-04-14 02:21:00,
2013-04-13 19:26:00,68.4,52.0,29.76,South,190,0.0,0.0,56,0.00,,,0.00,meteohub,2013-04-14 02:26:00,
2013-04-13 19:31:00,67.8,52.0,29.76,South,190,0.0,0.0,57,0.00,,,0.00,meteohub,2013-04-14 02:31:00,
2013-04-13 19:36:00,67.5,52.2,29.76,South,190,0.0,0.0,58,0.00,,,0.00,meteohub,2013-04-14 02:36:00,
2013-04-13 19:42:00,67.3,52.0,29.76,South,190,0.0,0.0,58,0.00,,,0.00,meteohub,2013-04-14 02:42:00,
2013-04-13 19:47:00,66.9,52.2,29.76,South,190,0.0,0.0,59,0.00,,,0.00,meteohub,2013-04-14 02:47:00,
2013-04-13 19:52:00,66.6,52.2,29.76,South,190,0.0,0.0,60,0.00,,,0.00,meteohub,2013-04-14 02:52:00,
2013-04-13 19:57:00,66.2,52.3,29.76,South,190,0.0,0.0,61,0.00,,,0.00,meteohub,2013-04-14 02:57:00,
2013-04-13 20:03:00,65.8,52.0,29.76,South,190,0.0,0.0,61,0.00,,,0.00,meteohub,2013-04-14 03:03:00,
2013-04-13 20:08:00,65.7,52.3,29.77,South,190,0.0,0.0,62,0.00,,,0.00,meteohub,2013-04-14 03:08:00,
2013-04-13 20:13:00,65.7,51.8,29.77,South,190,0.0,0.0,61,0.00,,,0.00,meteohub,2013-04-14 03:13:00,
2013-04-13 20:18:00,65.5,52.2,29.77,South,190,0.0,0.0,62,0.00,,,0.00,meteohub,2013-04-14 03:18:00,
2013-04-13 20:23:00,65.1,51.8,29.77,South,190,2.0,5.0,62,0.00,,,0.00,meteohub,2013-04-14 03:23:00,
2013-04-13 20:29:00,64.8,51.4,29.77,South,190,0.0,5.0,62,0.00,,,0.00,meteohub,2013-04-14 03:29:00,
2013-04-13 20:34:00,64.6,51.6,29.78,South,190,0.0,5.0,63,0.00,,,0.00,meteohub,2013-04-14 03:34:00,
2013-04-13 20:39:00,64.2,51.4,29.78,South,190,0.0,4.0,63,0.00,,,0.00,meteohub,2013-04-14 03:39:00,
2013-04-13 20:44:00,64.0,51.3,29.78,South,190,0.0,2.0,63,0.00,,,0.00,meteohub,2013-04-14 03:44:00,
2013-04-13 20:49:00,63.9,51.4,29.78,South,190,0.0,0.0,64,0.00,,,0.00,meteohub,2013-04-14 03:49:00,
2013-04-13 20:54:00,63.3,51.4,29.78,South,190,0.0,0.0,65,0.00,,,0.00,meteohub,2013-04-14 03:54:00,
2013-04-13 21:00:00,62.8,51.3,29.78,South,188,0.0,4.0,66,0.00,,,0.00,meteohub,2013-04-14 04:00:00,
2013-04-13 21:02:00,62.4,50.9,29.79,South,188,0.0,4.0,66,0.00,,,0.00,meteohub,2013-04-14 04:02:00,
2013-04-13 21:05:00,62.1,50.9,29.79,South,188,0.0,4.0,67,0.00,,,0.00,meteohub,2013-04-14 04:05:00,
2013-04-13 21:10:00,61.5,50.9,29.79,South,188,0.0,4.0,68,0.00,,,0.00,meteohub,2013-04-14 04:10:00,
2013-04-13 21:16:00,61.3,51.1,29.79,South,188,0.0,4.0,69,0.00,,,0.00,meteohub,2013-04-14 04:16:00,
2013-04-13 21:21:00,60.8,50.9,29.79,South,188,0.0,0.0,70,0.00,,,0.00,meteohub,2013-04-14 04:21:00,
2013-04-13 21:26:00,60.6,50.4,29.79,South,188,0.0,0.0,69,0.00,,,0.00,meteohub,2013-04-14 04:26:00,
2013-04-13 21:31:00,60.4,49.8,29.80,South,188,0.0,2.0,68,0.00,,,0.00,meteohub,2013-04-14 04:31:00,
2013-04-13 21:36:00,60.3,50.0,29.80,South,188,0.0,2.0,69,0.00,,,0.00,meteohub,2013-04-14 04:36:00,
2013-04-13 21:42:00,60.1,50.7,29.80,South,188,0.0,2.0,71,0.00,,,0.00,meteohub,2013-04-14 04:42:00,
2013-04-13 21:47:00,59.9,50.9,29.80,South,187,0.0,2.0,72,0.00,,,0.00,meteohub,2013-04-14 04:47:00,
2013-04-13 21:52:00,59.7,50.7,29.80,South,187,0.0,2.0,72,0.00,,,0.00,meteohub,2013-04-14 04:52:00,
2013-04-13 21:57:00,59.5,50.5,29.81,South,187,0.0,5.0,72,0.00,,,0.00,meteohub,2013-04-14 04:57:00,
2013-04-13 22:03:00,59.4,50.4,29.81,South,187,0.0,0.0,72,0.00,,,0.00,meteohub,2013-04-14 05:03:00,
2013-04-13 22:08:00,59.2,50.5,29.80,South,186,0.0,2.0,73,0.00,,,0.00,meteohub,2013-04-14 05:08:00,
2013-04-13 22:13:00,58.8,50.2,29.81,South,186,0.0,3.0,73,0.00,,,0.00,meteohub,2013-04-14 05:13:00,
2013-04-13 22:19:00,58.5,49.5,29.81,South,186,1.0,3.0,72,0.00,,,0.00,meteohub,2013-04-14 05:19:00,
2013-04-13 22:24:00,58.5,49.5,29.81,South,186,0.0,3.0,72,0.00,,,0.00,meteohub,2013-04-14 05:24:00,
2013-04-13 22:29:00,58.5,49.5,29.81,South,186,0.0,3.0,72,0.00,,,0.00,meteohub,2013-04-14 05:29:00,
2013-04-13 22:34:00,58.5,49.1,29.80,South,186,0.0,3.0,71,0.00,,,0.00,meteohub,2013-04-14 05:34:00,
2013-04-13 22:39:00,58.5,49.1,29.81,South,180,5.0,5.0,71,0.00,,,0.00,meteohub,2013-04-14 05:39:00,
2013-04-13 22:44:00,58.5,49.1,29.81,South,180,0.0,9.0,71,0.00,,,0.00,meteohub,2013-04-14 05:44:00,
2013-04-13 22:50:00,58.5,49.1,29.81,South,180,0.0,9.0,71,0.00,,,0.00,meteohub,2013-04-14 05:50:00,
2013-04-13 22:55:00,58.3,48.9,29.81,South,180,0.0,9.0,71,0.00,,,0.00,meteohub,2013-04-14 05:55:00,
2013-04-13 23:01:00,58.5,49.5,29.81,South,180,0.0,1.0,72,0.00,,,0.00,meteohub,2013-04-14 06:01:00,
2013-04-13 23:06:00,58.3,49.3,29.81,South,179,0.0,7.0,72,0.00,,,0.00,meteohub,2013-04-14 06:06:00,
2013-04-13 23:11:00,57.9,49.3,29.81,South,179,1.0,7.0,73,0.00,,,0.00,meteohub,2013-04-14 06:11:00,
2013-04-13 23:17:00,57.7,49.1,29.81,South,179,4.0,6.0,73,0.00,,,0.00,meteohub,2013-04-14 06:17:00,
2013-04-13 23:22:00,57.6,48.9,29.81,South,176,0.0,6.0,73,0.00,,,0.00,meteohub,2013-04-14 06:22:00,
2013-04-13 23:27:00,57.7,48.7,29.81,South,176,0.0,7.0,72,0.00,,,0.00,meteohub,2013-04-14 06:27:00,
2013-04-13 23:32:00,57.6,48.9,29.81,South,176,0.0,7.0,73,0.00,,,0.00,meteohub,2013-04-14 06:32:00,
2013-04-13 23:37:00,57.4,48.7,29.81,South,176,0.0,0.0,73,0.00,,,0.00,meteohub,2013-04-14 06:37:00,
2013-04-13 23:42:00,57.6,48.9,29.82,South,176,0.0,0.0,73,0.00,,,0.00,meteohub,2013-04-14 06:42:00,
2013-04-13 23:47:00,57.4,49.1,29.81,South,176,0.0,3.0,74,0.00,,,0.00,meteohub,2013-04-14 06:47:00,
2013-04-13 23:52:00,57.0,48.7,29.81,South,176,0.0,3.0,74,0.00,,,0.00,meteohub,2013-04-14 06:52:00,
2013-04-13 23:58:00,56.7,49.1,29.81,South,175,0.0,8.0,76,0.00,,,0.00,meteohub,2013-04-14 06:58:00,